TimeEST,TemperatureF,Dew PointF,Humidity,Sea Level PressureIn,VisibilityMPH,Wind Direction,Wind SpeedMPH,Gust SpeedMPH,PrecipitationIn,Events,Conditions,WindDirDegrees,DateUTC
12:53 AM,-6.0,-11.9,75,30.15,9.0,Calm,Calm,-,N/A,,Clear,0,2014-01-01 05:53:00
1:53 AM,-7.1,-11.9,79,30.17,7.0,Calm,Calm,-,N/A,,Clear,0,2014-01-01 06:53:00
2:53 AM,-8.0,-13.0,79,30.19,10.0,Calm,Calm,-,N/A,,Clear,0,2014-01-01 07:53:00
3:53 AM,-9.0,-14.1,79,30.21,10.0,Calm,Calm,-,N/A,,Clear,0,2014-01-01 08:53:00
4:53 AM,-11.0,-15.0,83,30.23,10.0,Calm,Calm,-,N/A,,Clear,0,2014-01-01 09:53:00
5:53 AM,-11.0,-17.0,75,30.25,10.0,Calm,Calm,-,N/A,,Clear,0,2014-01-01 10:53:00
6:53 AM,-11.0,-17.0,75,30.26,10.0,Calm,Calm,-,N/A,,Clear,0,2014-01-01 11:53:00
7:53 AM,-8.0,-14.1,75,30.28,10.0,Calm,Calm,-,N/A,,Partly Cloudy,0,2014-01-01 12:53:00
8:53 AM,-2.0,-5.1,87,30.31,10.0,Calm,Calm,-,N/A,,Clear,0,2014-01-01 13:53:00
9:53 AM,12.0,7.0,80,30.31,10.0,WSW,3.5,-,N/A,,Clear,250,2014-01-01 14:53:00
10:33 AM,15.1,9.0,77,30.30,2.0,Variable,5.8,-,N/A,,Haze,0,2014-01-01 15:33:00
10:43 AM,15.1,8.1,74,30.30,10.0,WSW,5.8,-,N/A,,Clear,250,2014-01-01 15:43:00
10:53 AM,16.0,8.1,71,30.30,10.0,Variable,6.9,-,N/A,,Clear,0,2014-01-01 15:53:00
11:53 AM,19.0,8.1,62,30.28,10.0,WSW,9.2,-,N/A,,Clear,250,2014-01-01 16:53:00
12:53 PM,19.9,5.0,52,30.28,10.0,WSW,10.4,16.1,N/A,,Scattered Clouds,250,2014-01-01 17:53:00
1:53 PM,19.9,6.1,55,30.28,10.0,WSW,5.8,-,N/A,,Mostly Cloudy,250,2014-01-01 18:53:00
2:53 PM,21.0,5.0,50,30.30,10.0,WSW,4.6,-,N/A,,Overcast,250,2014-01-01 19:53:00
3:53 PM,19.0,7.0,59,30.33,10.0,Calm,Calm,-,N/A,,Overcast,0,2014-01-01 20:53:00
4:53 PM,15.1,7.0,70,30.35,10.0,Variable,3.5,-,N/A,,Clear,0,2014-01-01 21:53:00
5:53 PM,8.1,5.0,87,30.36,9.0,Calm,Calm,-,N/A,,Clear,0,2014-01-01 22:53:00
6:53 PM,5.0,1.9,87,30.38,10.0,Calm,Calm,-,N/A,,Clear,0,2014-01-01 23:53:00
7:53 PM,3.9,-0.9,80,30.39,10.0,Calm,Calm,-,N/A,,Clear,0,2014-01-02 00:53:00
8:53 PM,1.0,-2.9,83,30.39,10.0,Calm,Calm,-,N/A,,Clear,0,2014-01-02 01:53:00
9:53 PM,3.0,-0.9,84,30.40,10.0,Calm,Calm,-,N/A,,Overcast,0,2014-01-02 02:53:00
10:53 PM,9.0,1.0,70,30.43,10.0,Calm,Calm,-,N/A,,Overcast,0,2014-01-02 03:53:00
11:53 PM,8.1,-2.0,64,30.43,10.0,Variable,4.6,-,N/A,,Overcast,0,2014-01-02 04:53:00